Regional Weather Roundup
Issued by NWS Sioux Falls, SD

Home | Current Version | Previous Version | Text Only | Print | Product List | Glossary On
Versions: 1 2 3 4 5 6 7 8 9 10 11 12 13 14 15 16 17 18 19 20 21 22 23 24 25 26 27 28 29 30 31 32 33 34 35 36 37 38 39 40 41 42 43 44 45 46 47 48 49 50
000
ASUS43 KFSD 261302
RWRFSD

WEATHER ROUNDUP FOR SE SOUTH DAKOTA/SW MINNESOTA/NW IOWA
NATIONAL WEATHER SERVICE SIOUX FALLS SD
800 AM CDT THU MAY 26 2016

NOTE: "FAIR" INDICATES FEW OR NO CLOUDS BELOW 12,000 FEET WITH NO
SIGNIFICANT WEATHER AND OR OBSTRUCTIONS TO VISIBILITY.


SDZ038>040-050-052>070-261400-
SOUTHEAST SOUTH DAKOTA

CITY           SKY/WX    TMP DP  RH WIND       PRES   REMARKS
BROOKINGS      SUNNY     59  51  75 NW8       29.85S
CHAMBERLAIN    NOT AVBL
HURON          SUNNY     56  51  84 SW7       29.88R
MADISON        FAIR      57  57 100 NW7       29.88R
MITCHELL       SUNNY     61  53  75 NW5       29.88S
SIOUX FALLS    MOSUNNY   62  51  67 N9        29.86R
WINNER         FAIR      57  51  80 SW3       29.88R
YANKTON        SUNNY     61  52  72 W3        29.88S
$$

MNZ071-072-080-081-089-090-097-098-261400-
SOUTHWEST MINNESOTA

CITY           SKY/WX    TMP DP  RH WIND       PRES   REMARKS
FAIRMONT       SUNNY     63  48  59 S8        29.84F
JACKSON        SUNNY     63  55  77 W7        29.86S
LUVERNE        SUNNY     61  50  67 N6        29.87R
MARSHALL       SUNNY     62  53  72 NW9       29.85R
MONTEVIDEO     SUNNY     64  54  68 NW6       29.83S
PIPESTONE      SUNNY     61  50  67 NW8       29.86S
REDWOOD FALLS  SUNNY     64  54  69 W10       29.81S
TRACY          SUNNY     63  53  70 W7        29.86R
WINDOM         SUNNY     63  57  82 CALM      29.85F
WORTHINGTON    SUNNY     61  56  83 W5        29.87S
$$

IAZ001>003-012>014-020>022-031-032-NEZ013-014-SDZ071-261400-
NORTHWEST IOWA

CITY           SKY/WX    TMP DP  RH WIND       PRES   REMARKS
DENISON        SUNNY     61  57  88 CALM      29.88R
ESTHERVILLE    SUNNY     61  57  87 SW8       29.86R
SIOUX CITY     SUNNY     62  58  86 S3        29.90R
SPENCER        SUNNY     63  57  81 SW9       29.87R
STORM LAKE     SUNNY     61  57  88 SW9       29.91R
$$

ABBREVIATIONS USED IN REMARKS
   TC - TEMPERATURE IN CELSIUS
  WCI - WIND CHILL INDEX
   HX - HEAT INDEX
  VSB - VISIBILITY




USA.gov is the U.S. government's official web portal to all federal, state and local government web resources and services.